DMSP 5D-2 F13 DEB, 42322

Orbit data source: Space-Track

DMSP 5D-2 F13 DEB, 42322 is space debris in SSO originally from a launch on Fri, 24 Mar 1995 UTC launched from the Air Force Western Test Range (AFWTR). Debris objects in space refer to the collection of defunct objects orbiting the Earth. Examples of debris include non-operational satellites, rocket bodies, and fragments generated from explosions, collisions, or faulty payload assembly.

Loading next visibility...
Identifier
42322, 1995-015JQ
Orbit
SSO
Country
Flag of USUS
Related business
Manufacturer
Unknown
Mission
Spacecraft
Bus & Motor
Unknown
Mass
Unknown
Launch date (UTC)
1995-03-24 (30 years ago)
Launch vehicle
Unknown
Launch site
Air Force Western Test Range (AFWTR)
Object type
Payload
Rocket body
Debris
Shape & HBR
Unknown
Radar Cross Section
Small (<0.1 m²)

Expand to show TLE details & history
Last TLE update: 1 year ago

TLE from 1 year ago
0 DMSP 5D-2 F13 DEB
1 42322U 95015JQ  24226.86945799  .00038918  00000-0  12209-1 0  9990
2 42322  98.7928 247.2861 0036838 246.8893 112.8410 14.39974841484683
Epoch: 2024-08-13T20:52Z
TLE epoch observation values (Epoch: 2024-08-13T20:52:01.17Z)
Latitude
-0°
Longitude
-28.49904°
Altitude
771.81 km
Speed
7.463 km/s
True Right ascension
16h 29m 08s
True Declination
0° 00' 00"
Sunlit
Object was in daylight at epoch
Visualization orbit readout
Latitude
Unknown
Longitude
Unknown
Altitude
Unknown
Speed
Unknown
Apparent Right ascension
Unknown
Apparent Declination
Unknown
Sunlit
N/A
Visualization observer readout
Local Sidereal Time
21:11:27
Azimuth
Unknown
Elevation
Unknown
Doppler factor
Unknown
Orbital elements
Apogee altitude
781.997 km
Perigee altitude
729.438 km
Semi-major axis
7,133.855 km
Eccentricity
0.00368
Inclination
98.7928°
RAAN
247.2861°
Arg. of periapsis
246.8893°
True anomaly
113.22933°
Mean anomaly
112.841°
Eccentric anomaly
113.03524°
Mean motion
3.60211 °/min
Orbital period
99.94 mins
BSTAR
0.012209
Loading maneuver chart data...
Computing Atmospheric mass density...

Documentation

Showing up to 5 results
|